Weather in Zarichne

Ukraine / Mykolaiv District     46°53′48″N   31°54′38″E
temp.,
°C
wind,
m/s
gust,
m/s
humid.,
%
clouds,
%
prec.,
mm/h
press.,
hPa
HPBL,
m
27 november, sat
sat2723:00+6se71668100 0.0 1008523
02:00+8sse81688100 1.1 1005904
05:00+11s101888100 4.0 10021090
08:00+11ssw6129462 4.1 1002536
11:00+13ssw71380100 0.0 1003787
14:00+13ssw7137064 0.0 1003740
17:00+11s6139225 0.0 1003400
20:00+10ssw512900 0.0 1004335
28 november, sun
sun2823:00+9sw38900 0.0 1005166
02:00+8sw35870 0.0 100669
05:00+7ssw22822 0.0 100610
08:00+8sse35833 0.0 100681
11:00+14s510824 0.0 1006560
14:00+14ssw61081100 0.0 1005658
17:00+11sse51296100 0.0 1005607
20:00+12sse51097100 0.1 1004517
29 november, mon
mon2923:00+11se599699 0.1 1003416
02:00+11sse51097100 0.1 1001482
05:00+12s7149464 0.0 999594
08:00+13s9179199 0.1 997754
11:00+15ssw9147593 0.1 995848
14:00+14ssw9168375 0.5 993633
17:00+12sw8159243 0.4 992609
20:00+11w71273100 0.4 995622
30 november, tue
tue3023:00+8w497197 0.0 998315
02:00+7wnw3775100 0.0 1000215
05:00+5wnw377395 0.0 1001219
08:00+4nw3768100 0.0 1003231
11:00+7nnw4648100 0.0 1003455
14:00+7nnw5647100 0.0 1002748
17:00+5nw61149100 0.0 1003651
20:00+4nw61259100 0.0 1003727
1 december, wed
wed123:00+2nw613673 0.0 1005640
02:00+1wnw410710 0.0 1008345
05:000wsw487219 0.0 1009204
08:00+1sw4126793 0.0 1008424
11:00+5wsw71150100 0.0 1007854
14:00+6wsw61046100 0.0 10071106
17:00+4wsw410565 0.0 1008345
20:00+3w512565 0.0 1009416